Details for Air Canada Jazz at CYYC




Go Back


Latest METAR
Local Time

CYYC 180500Z 34005KT 5SM FU SCT200 18/09 A3002 RMK FU1CI2 SLP161 DENSITY ALT 4700FT
18/08/2018, 00:29:51

Description
Results
Air Canada Jazz Logo
Number of Pilots based at CYYC
0 Pilots Based here
Number of Air Canada Jazz Flights Departed from CYYC
0 Flights Departed
Number of Air Canada Jazz Flights Arrived at CYYC
0 Flights Arrived
Number of Air Canada Jazz Schedules Departing from CYYC
46 Schedules
Number of Air Canada Jazz Schedules Arriving at CYYC
38 Schedules
Number of Air Canada Jazz Schedules Departing from CYYC availible today
39 Schedules Today
Number of Air Canada Jazz Schedules Arriving at CYYC availible today
33 Schedules Today
Average Landing Rate at CYYC
-189 fpm
Air Canada Jazz Average Landing Rate at CYYC
0 fpm
Total Fuel Purchased at CYYC by Air Canada Jazz
0.00 kgs / 0.00 lbs

Pilots Based at CYYC


Pilot ID
Pilot Name
Pilot Rank
No. of Flights
No. of Flying Hours
There are no pilots assigned to this hub!   Will you be the first?
Content